Flag for Canada Weather past 2 weeks in Kitchener, Ontario, Canada

Now
81 °F

Sunny.


Feels Like: 81 °F
Forecast: 57 / 80 °F
Wind: 12 mph from Northwest

Location: Waterloo Well

Current Time: Jul 31, 2015 at 11:57:01 AM

Latest Report: Jul 31, 2015 at 11:00 AM


Visibility: 9 mi

Pressure: 29.87 "Hg

Humidity: 45%

Dew point: 57 °F

Location of KitchenerLocation

Historic Weather in Kitchener — Graph

°F

Kitchener temperature yesterday

Maximum temperature yesterday: 82 °F (at 1:00 PM)
Minimum temperature yesterday: 64 °F (at 6:00 AM)
Average temperature yesterday: 75 °F

Past Weeks' High & Low Weather Summary

 TemperatureHumidityPressure
High90 °F (Jul 29, 3:00 PM)100% (Jul 18, 2:00 AM)30.14 "Hg (Jul 18, 2:00 AM)
Low46 °F (Jul 24, 5:00 AM)31% (Jul 29, 3:00 PM)29.64 "Hg (Jul 21, 2:00 AM)
Average70 °F72%29.91 "Hg
* Reported Jul 16 10:00 AM — Jul 31 10:00 AM, Kitchener, Weather by CustomWeather, © 2015

Note: Actual official high and low records may vary slightly from our data, if they occured in-between our weather recording intervals... More about our weather records

Advertising

Kitchener weather history for previous 24 hours

 ConditionsComfort  
Time TempWeatherWind HumidityBarometerVisibility
10:00 AM
Fri, Jul 31
77 °FSunny.10 mph51%29.87 "Hg9 mi
9:00 AM72 °FSunny.9 mph65%29.88 "Hg9 mi
8:00 AM64 °FSunny.No wind83%29.90 "Hg9 mi
7:00 AM55 °FClear.2 mph94%29.90 "Hg9 mi
6:00 AM52 °FFog.2 mph100%29.90 "Hg5 mi
5:00 AM55 °FClear.2 mph100%29.90 "Hg9 mi
4:00 AM55 °FClear.No wind100%29.90 "Hg9 mi
3:00 AM57 °FClear.2 mph94%29.90 "Hg9 mi
2:00 AM59 °FClear.5 mph94%29.91 "Hg9 mi
1:00 AM63 °FClear.6 mph83%29.91 "Hg9 mi
12:00 AM64 °FClear.5 mph78%29.89 "Hg9 mi
11:00 PM
Thu, Jul 30
68 °FClear.7 mph69%29.88 "Hg9 mi
10:00 PM72 °FPassing clouds.8 mph61%29.87 "Hg9 mi
9:00 PM73 °FSunny.9 mph53%29.86 "Hg9 mi
8:00 PM77 °FSunny.14 mph44%29.85 "Hg9 mi
7:00 PM79 °FScattered clouds.17 mph42%29.86 "Hg9 mi
6:00 PM81 °FScattered clouds.24 mph37%29.86 "Hg9 mi
5:00 PM82 °FScattered clouds.17 mph37%29.85 "Hg9 mi
4:00 PM81 °FPassing clouds.21 mph42%29.85 "Hg9 mi
3:00 PM82 °FPassing clouds.23 mph35%29.86 "Hg9 mi
2:00 PM82 °FPartly sunny.16 mph37%29.86 "Hg9 mi
1:00 PM82 °FScattered clouds.22 mph40%29.87 "Hg9 mi
12:00 PM81 °FScattered clouds.20 mph42%29.86 "Hg9 mi
11:00 AM79 °FSunny.14 mph51%29.87 "Hg9 mi
Weather by CustomWeather, © 2015

See weather overviewHow to use our weather pages